Regional Weather Roundup
Issued by NWS

Home | Current Version | Previous Version | Graphics & Text | Print | Product List | Glossary On
Versions: 1 2 3 4 5 6 7 8 9 10 11 12 13 14 15 16 17 18 19 20 21 22 23 24 25 26 27 28 29 30 31 32 33 34 35 36 37 38 39 40 41 42 43 44 45 46 47 48 49 50
000
ASUS43 KFSD 300510
RWRSD

WEATHER ROUNDUP FOR SOUTH DAKOTA
NATIONAL WEATHER SERVICE SIOUX FALLS SD
1200 AM CDT MON MAR 30 2015

NOTE: "FAIR" INDICATES FEW OR NO CLOUDS BELOW 12,000 FEET WITH NO
SIGNIFICANT WEATHER AND/OR OBSTRUCTIONS TO VISIBILITY.


SDZ001>005-009-010-012>017-300600-
NORTHWEST AND NORTH CENTRAL SOUTH DAKOTA

CITY           SKY/WX    TMP DP  RH WIND       PRES   REMARKS
BUFFALO          N/A     43  28  55 W6        29.94F
FAITH            N/A     47  26  44 SW6       30.01S
MOBRIDGE       CLOUDY    43  31  62 SE6       29.96S
$$

SDZ012>016-024>037-041>051-057-063-072>074-300600-
SOUTHWEST AND SOUTH CENTRAL SOUTH DAKOTA

CITY           SKY/WX    TMP DP  RH WIND       PRES   REMARKS
RAPID CTY ARPT MOCLDY    45  27  49 CALM      30.05F
PIERRE         CLOUDY    47  28  47 S6        30.00S
CUSTER         CLOUDY    40  21  46 VRB3      30.10F
ELLSWORTH AFB  MOCLDY    45  28  50 SW8       30.04F
PHILIP         PTCLDY    41  24  51 W8        30.04R
PINE RIDGE     MOCLDY    37  25  61 CALM      30.07S
SPEARFISH      FAIR      43  25  49 CALM      30.06S
WINNER         FAIR      51  22  31 SW9       30.04F
$$

SDZ004>011-016>023-039-040-300600-
NORTHEAST SOUTH DAKOTA

CITY           SKY/WX    TMP DP  RH WIND       PRES   REMARKS
ABERDEEN       PTCLDY    32  22  66 W5        29.99S WCI  27
WATERTOWN      CLEAR     35  28  75 S5        29.99S
SISSETON         N/A     43  27  53 W14       29.94F
$$

SDZ017-020-022-023-036>040-048>070-300600-
SOUTHEAST SOUTH DAKOTA

CITY           SKY/WX    TMP DP  RH WIND       PRES   REMARKS
SIOUX FALLS    CLEAR     35  21  56 SW5       30.04F
HURON          PTCLDY    41  23  48 S5        30.01F
CHAMBERLAIN    CLOUDY    40  24  53 S3        30.04S
MITCHELL       PTCLDY    45  23  42 SW5       30.04F
YANKTON        CLEAR     45  19  36 SW7       30.07F
$$

ABBREVIATIONS USED IN REMARKS
   TC - TEMPERATURE IN CELSIUS
  WCI - WIND CHILL INDEX
   HX - HEAT INDEX
  VSB - VISIBILITY



USA.gov is the U.S. government's official web portal to all federal, state and local government web resources and services.